EST,Max TemperatureF,Mean TemperatureF,Min TemperatureF,Max Dew PointF,MeanDew PointF,Min DewpointF,Max Humidity, Mean Humidity, Min Humidity, Max Sea Level PressureIn, Mean Sea Level PressureIn, Min Sea Level PressureIn, Max VisibilityMiles, Mean VisibilityMiles, Min VisibilityMiles, Max Wind SpeedMPH, Mean Wind SpeedMPH, Max Gust SpeedMPH,PrecipitationIn, CloudCover, Events, WindDirDegrees
2013-1-1,78,64,51,63,57,55,100,58,44,30.25,30.14,30.07,10,8,1,13,3,16,0.00,3,,190
2013-1-2,82,68,55,68,63,59,100,64,45,30.10,30.07,30.02,10,8,0,14,3,,0.00,3,Fog,229
2013-1-3,77,68,59,70,64,63,100,71,61,30.20,30.12,30.06,10,4,0,12,2,17,0.12,8,Fog-Rain,42
2013-1-4,62,58,55,,,,,,,30.31,30.25,30.18,10,8,2,9,5,,0.07,8,Rain,25
2013-1-5,77,66,55,61,58,52,100,68,53,30.33,30.27,30.21,10,9,4,9,5,,0.01,6,,46
2013-1-6,80,71,62,70,66,63,100,77,58,30.24,30.16,30.09,10,8,0,13,4,16,0.00,5,Fog-Rain,58
2013-1-7,68,64,60,63,55,52,100,75,64,30.25,30.19,30.14,10,10,4,13,7,20,0.01,7,Rain,44
2013-1-8,84,73,62,68,65,61,83,66,45,30.25,30.19,30.16,10,10,4,9,5,,0.00,3,,75
2013-1-9,86,78,69,73,66,61,100,65,43,30.33,30.26,30.21,10,9,5,12,6,17,0.00,3,,104
2013-1-10,84,76,68,68,61,57,83,57,40,30.33,30.29,30.24,10,9,5,16,8,23,0.00,3,,105
2013-1-11,84,74,64,72,65,61,100,69,45,30.30,30.23,30.17,10,9,3,10,4,40,0.00,2,,122
2013-1-12,84,74,64,66,62,59,94,61,42,30.22,30.16,30.12,10,9,4,14,5,20,0.00,1,,110
2013-1-13,82,73,64,70,63,57,100,67,42,30.20,30.13,30.10,10,10,10,9,4,,0.00,2,,121
2013-1-14,82,72,62,66,60,57,100,62,42,30.22,30.18,30.14,10,8,0,10,3,,0.00,2,Fog,135
2013-1-15,84,72,59,70,62,59,94,64,42,30.18,30.13,30.08,10,8,0,9,3,,0.00,3,Fog,156
2013-1-16,84,73,62,68,58,52,100,57,33,30.14,30.08,30.04,10,10,2,13,4,16,0.00,1,,170
2013-1-17,77,67,57,72,56,45,100,77,63,30.17,30.08,30.04,10,6,0,18,5,29,0.00,6,Fog-Rain,243
2013-1-18,64,52,41,61,45,34,100,72,59,30.33,30.27,30.17,10,10,2,15,10,22,0.00,6,,12
2013-1-19,77,66,55,59,54,48,83,69,50,30.30,30.23,30.16,10,10,10,15,7,22,0.00,7,,39
2013-1-20,77,68,60,63,59,55,100,71,54,30.21,30.14,30.08,10,9,4,9,5,,0.00,6,,45
2013-1-21,77,68,60,63,57,52,82,71,50,30.14,30.09,30.03,10,10,10,10,4,,0.00,5,,346
2013-1-22,68,60,50,52,37,25,82,48,21,30.31,30.22,30.11,10,10,10,13,5,21,0.00,0,,18
2013-1-23,71,58,44,39,33,23,81,48,18,30.40,30.34,30.30,10,10,10,9,4,,0.00,0,,17
2013-1-24,75,58,41,52,44,39,100,61,29,30.37,30.31,30.27,10,10,7,13,2,18,0.00,0,,330
2013-1-25,77,62,46,52,44,37,88,48,24,30.35,30.28,30.21,10,7,0,10,2,,0.00,1,Fog,249
2013-1-26,77,62,46,59,52,48,100,60,38,30.32,30.25,30.20,10,7,0,9,2,,0.00,0,Fog,326
2013-1-27,80,65,50,63,53,45,100,51,28,30.34,30.29,30.25,10,7,0,10,3,,0.00,0,Fog,76
2013-1-28,80,70,60,70,64,59,100,68,48,30.37,30.30,30.25,10,8,2,13,5,20,0.00,4,,83
2013-1-29,86,75,64,70,64,59,88,62,40,30.27,30.20,30.12,10,7,0,12,5,17,0.00,5,Fog,127
2013-1-30,86,76,66,68,64,59,100,70,40,30.14,30.02,29.95,10,10,7,20,10,28,0.00,1,,172
2013-1-31,71,58,46,68,34,16,100,45,16,30.27,30.14,29.95,10,10,4,18,8,30,0.13,3,Rain,324